#timestamp,LO_Frequency,Hit,StdDev 
1532872815.0,286046999.9,N
1532872815.9,286046999.9,N
1532872835.8,286047002.4,Y
1532872855.6,286047001.8,P
1532872875.4,286047002.3,N
1532872895.3,286047002.1,N
1532872915.1,286047002.0,N
1532872935.8,286047002.1,N
1532872955.7,286046999.7,N
1532872975.5,286047001.5,N
1532872995.4,286047001.8,N
1532873015.2,286047004.4,Y
1532873035.0,286047000.1,P
1532873035.9,286047000.1,N
1532873055.8,286047002.7,P
1532873075.6,286046999.7,N
1532873095.4,286047002.4,N
1532873115.3,286047002.3,N
1532873135.1,286047000.3,N
1532873155.9,286047002.3,N
1532873175.7,286047000.7,N
1532873195.5,286047000.7,N
1532873215.4,286047000.4,N
1532873235.2,286047000.8,N
1532873255.0,286047002.8,N
1532873255.9,286047002.8,N
1532873275.7,286047000.4,N
1532873295.5,286047011.9,Y
1532873315.3,286046998.1,P
1532873335.2,286046998.1,N
1532873355.0,286046999.9,N
1532873355.9,286046999.9,N
1532873375.8,286047001.0,N
1532873395.6,286046998.5,N
1532873415.4,286046999.0,N
1532873435.3,286046999.6,N
1532873455.1,286046999.4,N
1532873475.8,286046997.0,N
1532873495.7,286046996.7,N
1532873515.5,286046997.5,N
1532873535.4,286046997.5,N
1532873555.2,286046995.9,Y
1532873575.0,286046996.9,P
1532873575.9,286046996.9,P
1532873595.8,286046997.5,N
1532873615.6,286046998.0,N
1532873635.5,286046997.6,Y
1532873655.3,286046998.3,P
1532873675.1,286046998.9,P
1532873695.9,286046998.4,P
1532873715.7,286046998.8,N
1532873735.6,286046998.7,N
1532873755.4,286046999.2,N
1532873775.2,286046999.3,N
1532873795.1,286046998.3,Y
1532873796.0,286046998.3,P
1532873815.8,286047000.3,N
1532873835.6,286046998.1,N
1532873855.5,286047001.2,N
1532873875.3,286047001.2,N
1532873895.2,286047001.2,N
1532873915.9,286047000.5,N
1532873935.7,286047000.2,N
1532873955.6,286047000.0,N
1532873975.4,286047000.4,N
1532873995.2,286047000.4,N
1532874015.1,286047000.3,N
1532874016.0,286047000.3,N
1532874035.8,286047000.9,N
1532874055.7,286047000.8,N
1532874075.5,286047000.9,N
1532874095.3,286046998.1,N
1532874115.2,286046998.5,N
1532874135.0,286046998.8,N
1532874135.9,286046998.8,N
1532874155.7,286046998.4,N
1532874175.6,286047000.6,N
1532874195.4,286047000.9,N
1532874215.3,286046999.9,N
1532874235.1,286047001.2,N
1532874236.0,286047001.2,N
1532874255.8,286046999.6,N
1532874275.7,286047004.3,Y
1532874295.5,286047007.6,P
1532874315.3,286047006.9,N
1532874335.2,286047005.0,N
1532874355.0,286047005.8,N
1532874355.9,286047005.8,N
1532874375.8,286047005.2,N
1532874395.6,286047005.9,N
1532874415.4,286047003.4,N
1532874435.3,286047003.1,N
1532874455.1,286047003.8,N
1532874475.9,286047001.3,N
1532874495.7,286047003.9,N
1532874515.5,286047003.7,N
1532874535.4,286047001.7,N
1532874555.2,286047002.0,N
1532874575.0,286047001.7,N
1532874575.9,286047001.7,N
1532874595.8,286047003.9,N
1532874615.6,286047004.0,N
1532874635.5,286047002.6,N
1532874655.3,286047002.8,N
1532874675.1,286047000.0,N
1532874695.9,286047000.9,N
1532874715.7,286046998.3,N
1532874735.5,286046999.4,N
1532874755.4,286046998.4,N
1532874775.2,286047000.8,N
1532874795.1,286046998.3,N
1532874796.0,286046998.3,N
1532874815.8,286046998.7,N
1532874835.6,286046998.2,N
1532874855.5,286046998.3,N
1532874875.3,286046999.2,N
1532874895.1,286046999.3,N
1532874915.9,286046999.1,N
1532874935.7,286046998.9,N
1532874955.6,286046998.9,N
1532874975.4,286046998.7,N
1532874995.2,286046996.5,N
1532875015.1,286046997.0,N
1532875016.0,286046997.0,N
1532875035.8,286046999.6,N
1532875055.7,286046999.1,N
1532875075.5,286046996.5,N
1532875095.1,286046999.6,N
1532875096.0,286046999.6,N
1532875115.8,286046997.7,N
1532875135.6,286046997.8,N
1532875155.5,286046996.7,N
1532875175.3,286046997.8,N
1532875195.1,286046996.7,N
1532875215.9,286046996.7,N
1532875235.7,286046997.7,N
1532875255.6,286046997.7,N
1532875275.4,286046997.8,N
1532875295.2,286046997.4,N
1532875315.1,286046997.2,N
1532875316.0,286046997.2,N
1532875335.8,286046996.8,Y
1532875355.6,286046998.6,P
1532875375.5,286046998.5,P
1532875395.3,286046998.8,P
1532875415.2,286046998.5,Y
1532875435.9,286047002.7,P
1532875455.7,286046999.8,N
1532875475.6,286046999.7,N
1532875495.4,286047000.2,N
1532875515.2,286047000.6,N
1532875535.1,286047000.1,N
1532875536.0,286047000.1,N
1532875555.8,286047000.5,N
1532875575.7,286047000.4,N
1532875595.5,286047000.6,N
1532875615.3,286046998.5,N
1532875635.2,286047000.6,N
1532875655.0,286047000.1,N
1532875655.9,286047000.1,N
1532875675.8,286046998.2,N
1532875695.6,286047000.5,N
1532875715.4,286046998.1,N
1532875735.3,286047001.2,N
1532875755.1,286047001.8,N
1532875775.9,286047005.6,Y
1532875795.7,286047004.1,P
1532875815.5,286047002.8,N
1532875835.4,286047000.4,N
1532875855.2,286047002.7,N
1532875875.0,286047002.7,N
1532875875.9,286047002.7,N
1532875895.8,286047002.4,N
1532875915.6,286047004.4,Y
1532875935.5,286047000.1,P
1532875955.3,286047000.1,N
1532875975.1,286047000.7,N
1532875995.9,286047000.8,N
1532876015.7,286047000.3,N
1532876035.5,286046999.9,N
1532876055.4,286047000.6,N
1532876075.2,286047000.8,N
1532876095.1,286046998.4,N
1532876096.0,286046998.4,N
1532876115.8,286046999.1,N
1532876135.6,286046996.9,Y
1532876155.5,286046996.6,P
1532876175.3,286046996.9,N
1532876195.2,286046996.7,N
1532876215.9,286046997.1,N
1532876235.7,286046996.8,N
1532876255.6,286046996.8,N
1532876275.4,286046997.8,N
1532876295.3,286046997.6,N
1532876315.1,286046995.0,Y
1532876316.0,286046995.0,P
1532876335.8,286046998.8,N
1532876355.7,286046998.3,N
1532876375.5,286046998.4,N
1532876395.3,286046998.9,N
